Wind_Speed
29 32 43 40 40 33 28 27 30 28 24 25 25 23 18 17 19 17 19 24 24 23 22 25 27 28 29 30 30 30 29 27 25 23 20 17 15 14 12 11 10 9 9 9
27 45 35 31 33 36 33 30 28 27 25 22 25 26 25 20 20 21 20 24 25 24 25 25 24 29 30 31 31 31 29 27 25 23 20 18 17 15 13 13 12 10 10 8
38 23 31 31 33 36 37 35 30 26 26 26 23 26 25 25 21 22 19 23 23 28 28 25 21 28 30 32 31 30 29 27 25 24 22 20 19 17 15 14 13 11 11 10
35 27 29 35 36 35 37 35 30 25 28 28 29 26 29 26 27 25 22 24 25 28 29 24 21 23 28 28 29 30 28 27 26 25 23 21 18 17 15 13 13 12 12 12
42 31 30 36 37 35 35 28 32 29 27 25 26 33 30 29 33 29 26 24 25 27 30 30 20 17 23 27 29 29 28 28 26 25 23 21 20 18 16 16 15 14 13 14
36 27 33 27 31 28 28 27 27 30 31 28 36 31 29 27 32 33 26 27 25 28 30 30 25 17 23 27 30 32 31 30 28 26 24 21 20 19 18 17 15 14 15 14
37 41 29 28 29 30 30 29 22 21 25 18 37 37 36 27 26 26 28 28 27 28 30 31 32 29 21 28 32 34 33 30 29 27 26 23 22 21 20 19 18 17 15 15
39 35 46 34 40 36 36 38 28 22 19 20 35 40 43 34 19 29 26 28 28 27 31 32 33 31 23 21 27 29 30 30 31 29 26 24 22 22 22 20 20 19 17 15
41 44 27 43 36 39 36 47 40 31 30 22 33 35 34 32 36 30 25 30 30 30 30 32 33 33 25 24 17 26 29 30 30 28 27 25 25 24 23 22 21 21 19 18
37 29 40 31 32 38 39 36 37 37 22 20 21 21 31 29 31 37 34 28 32 29 30 32 32 33 29 25 23 18 19 28 29 29 28 28 28 27 27 25 24 24 22 20
44 33 25 38 49 46 47 38 44 34 31 15 12 13 24 26 25 30 33 37 30 32 29 31 31 32 25 25 28 28 23 19 22 27 25 25 27 30 29 29 28 27 25 24
51 29 36 45 41 36 38 41 41 34 33 34 19 2 4 16 18 20 31 28 32 29 30 28 32 31 31 31 29 27 26 24 23 24 23 22 20 21 25 30 31 29 29 28
27 32 30 31 37 37 45 44 38 41 31 31 23 9 7 8 6 19 21 26 29 29 27 28 28 29 31 31 29 29 28 26 27 29 27 27 26 27 24 21 24 27 29 30
25 30 39 26 41 41 42 46 44 38 41 30 33 24 8 6 9 14 18 20 24 27 27 27 26 27 26 28 26 22 24 29 32 33 33 31 29 27 25 24 19 19 19 22
12 22 34 37 15 24 42 45 44 46 39 41 23 26 15 10 13 14 15 16 16 18 23 27 31 24 25 28 27 18 20 27 31 35 35 33 29 29 29 27 24 22 21 20
9 16 25 30 27 16 19 33 43 43 40 35 32 22 21 17 14 12 12 11 8 10 10 15 22 26 30 30 31 26 21 20 25 34 38 37 34 32 32 29 26 26 26 27
5 12 20 24 27 18 24 31 30 40 40 37 35 31 19 17 19 17 14 14 13 11 11 14 14 21 23 26 30 31 27 24 25 25 32 39 38 37 35 32 31 29 30 33
10 8 10 19 25 22 25 26 25 23 26 30 29 22 26 23 19 19 16 16 16 15 15 15 14 16 19 25 23 28 31 32 28 27 27 36 39 35 37 37 35 36 37 37
16 13 11 16 24 16 32 20 22 30 30 24 25 24 18 18 16 18 16 16 18 19 18 14 17 19 18 18 21 30 33 36 31 28 24 33 40 39 37 37 38 38 40 40
20 18 18 12 18 19 13 12 12 12 18 22 29 24 21 19 21 18 16 16 18 19 19 20 19 23 25 28 26 26 37 38 36 27 25 31 38 41 40 39 38 40 41 42
19 22 23 23 15 20 4 10 13 17 8 14 15 16 19 19 19 23 23 29 29 27 25 29 30 36 37 33 32 35 34 39 37 38 32 30 37 39 41 42 42 42 43 43
18 25 25 25 27 24 16 9 15 11 11 11 14 14 15 12 10 23 29 32 35 35 31 29 29 31 32 35 36 35 36 35 35 38 38 32 33 38 40 40 41 42 40 36
19 17 22 23 30 19 22 22 19 12 11 7 8 7 9 18 17 16 20 25 31 37 32 30 29 31 27 32 38 33 29 31 33 37 37 33 34 38 37 36 36 36 35 33
17 20 26 24 27 21 20 18 22 23 18 19 19 20 18 18 16 26 24 24 25 27 34 32 31 32 27 29 36 35 32 30 27 31 33 34 34 37 38 39 38 38 36 33
24 22 26 33 34 30 28 27 25 26 28 32 31 31 33 29 23 21 27 26 24 21 25 32 34 32 33 28 33 36 33 31 29 28 31 33 34 36 37 37 37 35 37 33
27 32 35 39 29 30 30 29 30 32 34 46 44 40 43 39 32 25 24 24 25 25 25 24 28 33 35 29 26 35 33 31 30 29 27 31 33 33 33 31 29 29 28 26
Wind_Direction
201 202 210 210 210 215 218 215 222 212 206 203 216 216 203 201 200 208 208 205 202 202 200 200 202 206 205 207 206 203 203 202 204 207 209 215 224 229 235 240 240 236 231 233
203 217 214 212 214 215 220 226 217 220 208 210 216 220 217 226 212 210 213 209 202 200 201 202 208 207 211 210 207 206 205 205 207 211 213 219 224 229 229 231 233 231 233 237
207 224 209 210 210 214 219 221 223 217 217 220 222 226 223 225 222 213 214 213 204 202 200 210 215 211 213 213 211 210 207 208 210 214 216 218 222 223 225 229 235 234 238 240
213 215 210 207 213 211 219 217 222 223 223 214 217 233 219 220 214 212 211 210 212 202 203 212 219 220 214 214 211 212 210 212 214 217 219 219 221 224 228 234 240 240 233 242
213 210 209 211 212 211 219 216 219 223 231 238 228 222 235 211 214 213 214 213 215 210 205 204 229 229 221 213 211 210 211 214 218 220 223 222 221 222 224 230 236 238 244 246
217 220 214 219 213 213 213 215 219 222 229 238 229 233 224 221 214 217 215 214 214 213 207 205 211 222 216 215 214 212 212 214 215 216 218 220 221 224 229 233 239 242 248 249
215 217 221 212 209 209 205 203 207 218 217 226 228 231 231 225 221 219 218 215 213 211 206 205 203 203 213 215 215 217 215 216 217 218 218 219 220 222 229 236 238 243 245 255
211 216 214 210 210 202 207 204 209 210 216 222 228 230 231 227 226 225 219 216 213 211 206 206 205 208 219 219 217 220 221 218 220 222 223 225 225 226 232 236 242 245 249 252
208 222 216 212 208 204 206 212 211 231 221 234 220 228 238 231 227 223 219 214 210 211 205 205 206 205 222 225 218 222 223 221 225 227 228 230 232 233 238 243 245 250 249 248
226 221 218 208 209 215 212 214 213 225 248 224 233 241 216 217 221 219 217 209 205 209 209 206 205 208 215 226 228 226 225 225 225 229 232 233 235 236 240 242 246 250 251 249
220 234 234 211 206 204 205 211 213 221 227 241 241 241 232 218 214 220 214 214 208 207 209 207 207 209 211 217 223 224 225 221 216 222 228 233 237 239 238 243 244 248 250 249
210 229 232 208 211 210 211 209 206 219 216 231 252 159 123 190 217 218 209 206 203 205 209 209 207 206 212 217 219 219 222 224 222 217 219 222 226 230 237 242 246 245 252 256
191 214 217 232 203 210 213 210 213 214 222 213 226 180 142 164 169 200 199 199 199 202 203 201 208 214 209 216 223 223 223 226 226 225 225 229 231 235 237 235 239 244 246 251
199 210 215 214 201 200 208 211 212 214 217 219 213 224 140 138 179 175 177 186 195 196 199 205 208 211 218 221 215 219 232 231 229 229 227 228 230 233 235 237 234 234 235 241
209 220 216 230 222 209 210 212 212 215 215 220 210 207 183 171 133 136 162 171 178 190 205 210 205 206 208 228 227 235 243 238 236 237 234 232 233 232 235 235 233 237 243 243
232 236 222 236 227 232 233 219 217 215 217 219 223 218 206 186 175 172 176 176 185 185 188 213 214 220 229 227 240 240 228 231 241 243 241 237 235 236 238 237 234 239 246 250
276 223 223 227 222 228 236 215 219 219 217 218 220 219 210 203 214 219 219 217 216 207 216 227 226 223 210 218 224 226 232 239 242 248 247 238 235 236 238 238 239 241 247 249
248 246 235 227 220 224 231 219 219 222 221 217 221 219 221 227 227 234 239 237 235 238 243 239 234 221 225 221 218 224 232 234 245 252 258 240 234 237 236 237 241 242 243 249
228 228 239 234 224 217 224 217 215 219 220 217 221 223 224 224 228 232 236 237 242 224 226 247 233 226 223 224 242 225 233 236 239 252 261 243 234 235 237 237 239 243 245 248
223 227 231 231 243 218 175 172 187 198 214 218 223 222 225 226 231 241 248 246 244 240 235 229 224 223 227 229 225 229 233 233 235 242 257 238 238 242 241 239 243 247 248 253
205 220 223 230 243 229 171 197 194 191 159 185 192 204 208 217 218 220 216 224 231 234 236 223 225 222 224 229 228 227 235 242 243 241 250 247 237 240 239 238 241 246 249 255
213 207 220 224 232 237 210 218 195 200 207 174 172 184 193 208 253 214 224 233 239 245 243 233 232 224 222 228 228 232 236 245 241 236 239 246 242 240 239 238 239 244 249 250
248 226 226 225 229 229 230 244 226 260 245 251 256 255 252 221 228 220 231 232 232 236 238 234 229 225 228 230 227 234 241 236 240 239 241 243 241 236 236 236 240 239 244 254
246 246 252 251 241 247 238 241 236 248 257 257 255 229 218 228 233 220 233 234 232 236 234 231 227 225 233 231 226 229 233 238 241 241 242 243 242 240 241 241 242 248 254 263
250 256 252 255 252 252 249 247 251 256 256 243 224 227 229 231 233 225 227 240 237 241 241 239 235 234 233 231 226 228 231 235 242 241 241 243 245 242 237 236 242 248 253 259
250 253 252 252 250 251 253 253 254 259 250 227 228 227 225 225 231 229 230 245 243 255 248 236 239 238 234 235 239 230 231 235 236 242 242 238 239 235 234 237 240 244 251 253
Height
3113 3118 3111 3117 3123 3130 3131 3132 3133 3134 3138 3143 3145 3147 3150 3151 3156 3159 3161 3163 3164 3166 3169 3172 3173 3176 3179 3182 3186 3189 3192 3196 3199 3202 3205 3208 3211 3213 3214 3216 3217 3218 3219 3221
3110 3099 3109 3117 3122 3125 3127 3126 3128 3132 3134 3138 3141 3143 3146 3149 3149 3155 3157 3159 3162 3165 3167 3168 3169 3173 3176 3179 3182 3186 3190 3193 3197 3201 3204 3206 3209 3211 3212 3214 3215 3216 3218 3219
3094 3097 3107 3111 3115 3118 3121 3122 3124 3127 3131 3133 3138 3138 3140 3144 3146 3149 3154 3156 3158 3160 3162 3163 3165 3168 3172 3175 3179 3183 3187 3191 3195 3198 3200 3203 3206 3208 3210 3212 3213 3214 3216 3217
3093 3099 3099 3103 3106 3112 3113 3119 3124 3125 3126 3126 3133 3130 3133 3137 3140 3145 3148 3151 3154 3155 3157 3159 3161 3164 3167 3172 3176 3180 3184 3188 3192 3195 3198 3200 3204 3207 3209 3210 3212 3213 3214 3215
3079 3088 3093 3095 3097 3105 3108 3116 3120 3123 3124 3124 3124 3126 3121 3126 3132 3136 3142 3146 3149 3151 3154 3156 3157 3161 3165 3168 3172 3176 3181 3185 3188 3192 3195 3198 3201 3204 3207 3208 3210 3212 3213 3214
3080 3084 3087 3089 3096 3101 3109 3112 3115 3119 3121 3115 3115 3116 3113 3116 3122 3128 3134 3140 3144 3147 3151 3153 3155 3158 3161 3164 3168 3171 3175 3180 3184 3188 3192 3195 3199 3202 3204 3206 3208 3210 3211 3211
3072 3073 3078 3084 3090 3096 3100 3105 3106 3108 3103 3099 3110 3111 3109 3114 3118 3123 3128 3133 3138 3142 3146 3150 3153 3154 3157 3159 3162 3166 3170 3175 3180 3184 3187 3191 3195 3198 3201 3204 3206 3207 3208 3208
3061 3065 3066 3071 3076 3083 3089 3093 3089 3089 3089 3095 3103 3093 3098 3110 3113 3117 3121 3127 3132 3137 3141 3145 3148 3149 3152 3156 3159 3163 3167 3171 3175 3179 3184 3188 3191 3194 3197 3200 3202 3204 3205 3206
3049 3052 3056 3064 3072 3078 3081 3080 3087 3086 3083 3082 3084 3090 3098 3102 3106 3112 3116 3120 3125 3130 3135 3139 3142 3146 3148 3152 3155 3159 3162 3167 3170 3175 3180 3183 3187 3189 3192 3196 3199 3201 3203 3204
3042 3048 3051 3058 3067 3070 3070 3080 3086 3082 3075 3074 3075 3078 3083 3091 3097 3102 3109 3113 3119 3123 3129 3134 3138 3140 3143 3147 3151 3155 3158 3161 3167 3171 3175 3178 3182 3185 3187 3190 3193 3196 3199 3201
3039 3040 3042 3049 3045 3052 3061 3066 3073 3079 3076 3071 3073 3074 3076 3081 3089 3095 3100 3107 3113 3119 3124 3129 3133 3136 3138 3142 3145 3149 3153 3157 3161 3164 3169 3172 3175 3179 3182 3184 3188 3191 3194 3196
3029 3035 3036 3031 3044 3053 3057 3060 3065 3066 3070 3072 3069 3070 3072 3076 3084 3088 3094 3101 3107 3114 3120 3125 3129 3133 3136 3136 3140 3143 3147 3151 3156 3160 3164 3167 3171 3174 3176 3178 3181 3186 3188 3191
3024 3026 3029 3029 3039 3044 3045 3051 3057 3065 3068 3067 3070 3071 3075 3079 3081 3085 3090 3097 3104 3110 3116 3121 3126 3129 3131 3133 3135 3138 3141 3146 3150 3154 3158 3161 3165 3168 3170 3173 3176 3179 3183 3184
3015 3020 3019 3012 3015 3033 3040 3042 3049 3054 3059 3061 3065 3070 3074 3079 3080 3083 3089 3095 3101 3107 3113 3118 3122 3124 3127 3129 3130 3134 3138 3141 3144 3147 3150 3154 3158 3163 3166 3170 3173 3175 3177 3179
3020 3019 3020 3017 3022 3026 3029 3035 3040 3043 3052 3055 3061 3069 3072 3078 3081 3084 3088 3092 3096 3100 3104 3108 3112 3117 3122 3125 3126 3130 3133 3135 3139 3141 3144 3148 3153 3158 3161 3164 3168 3171 3172 3174
3018 3019 3019 3017 3019 3023 3025 3027 3034 3041 3048 3055 3060 3064 3071 3076 3081 3085 3089 3092 3096 3099 3103 3105 3109 3111 3115 3119 3121 3125 3128 3131 3134 3136 3138 3143 3148 3152 3155 3158 3162 3165 3167 3168
3018 3019 3018 3016 3019 3024 3024 3023 3029 3036 3043 3051 3054 3063 3068 3072 3077 3081 3085 3088 3092 3096 3099 3102 3104 3105 3107 3111 3114 3118 3122 3125 3127 3130 3132 3136 3141 3144 3148 3153 3155 3158 3160 3162
3021 3021 3019 3018 3021 3018 3016 3025 3030 3034 3038 3044 3052 3058 3063 3067 3071 3076 3079 3082 3086 3090 3093 3096 3099 3103 3104 3107 3110 3112 3114 3118 3121 3124 3125 3127 3132 3137 3141 3146 3148 3151 3154 3156
3020 3021 3020 3017 3011 3014 3016 3022 3027 3031 3036 3042 3047 3053 3057 3062 3067 3070 3073 3076 3079 3082 3085 3089 3094 3098 3101 3105 3105 3106 3107 3111 3115 3117 3119 3121 3125 3129 3133 3138 3141 3144 3147 3150
3016 3019 3022 3017 3011 3004 3015 3018 3022 3028 3033 3039 3044 3049 3055 3059 3062 3068 3072 3072 3073 3074 3076 3077 3083 3088 3091 3094 3097 3099 3100 3103 3108 3112 3113 3114 3118 3122 3126 3131 3134 3137 3140 3142
3011 3015 3016 3019 3015 3012 3014 3017 3023 3029 3036 3032 3041 3044 3050 3053 3055 3053 3057 3060 3062 3064 3067 3069 3071 3075 3078 3083 3086 3088 3093 3096 3104 3104 3106 3108 3110 3114 3119 3123 3126 3129 3131 3133
3005 3010 3011 3016 3015 3014 3014 3017 3024 3025 3025 3025 3029 3032 3035 3038 3040 3046 3050 3052 3054 3056 3058 3062 3064 3069 3073 3075 3078 3083 3086 3091 3093 3096 3098 3100 3103 3107 3110 3114 3118 3121 3123 3125
3005 3004 3006 3009 3009 3012 3014 3016 3020 3020 3018 3021 3022 3024 3027 3031 3035 3039 3042 3044 3046 3048 3050 3054 3058 3061 3065 3067 3070 3075 3080 3081 3084 3087 3090 3092 3095 3100 3103 3107 3110 3113 3115 3116
3001 3002 3000 3003 3002 3003 3006 3008 3010 3010 3011 3014 3016 3020 3023 3026 3028 3032 3034 3036 3040 3042 3044 3047 3051 3055 3058 3059 3063 3068 3070 3073 3076 3079 3082 3084 3088 3092 3095 3098 3101 3104 3105 3107
2998 2997 2997 2994 2996 2998 2998 3001 3003 3003 3004 3005 3011 3014 3015 3016 3020 3023 3027 3029 3033 3036 3039 3041 3044 3048 3050 3052 3055 3059 3063 3066 3069 3071 3073 3076 3079 3082 3085 3087 3091 3093 3093 3097
2994 2992 2989 2984 2992 2991 2993 2995 2996 2996 2998 3002 3005 3004 3007 3012 3016 3018 3020 3021 3024 3029 3031 3034 3036 3039 3043 3047 3048 3051 3054 3058 3061 3063 3065 3068 3070 3073 3076 3079 3082 3084 3086 3088